Find Starlink 11168

NORAD ID: 60183 Int'l Des: 2024-124 Owner: SPXS Country: US Constellation: starlink operational
LEOCIRCULAR

リアルタイム位置

3D地球を読み込み中...

Starlink 11168について

説明を読み込み中...

次回通過

Passes for default location (London). Set your location on the main map for personalized predictions.

高度履歴

Loading altitude history...

軌道要素

1 60183U 24124A 26125.60019558 .00005098 00000-0 46924-4 0 9992
2 60183 53.1596 240.6248 0000893 103.6321 256.4796 15.69701329106662
Epoch: May 5, 2026 • Age: 51 hours

現在のステータス

高度 361.3 km
速度 7.70 km/s
衛星直下点 30.60°N, 135.86°E
打ち上げ日 Jul 3, 2024
運用期間 1.8 years
タイプ internet

技術仕様

分類 Payload
質量 960.00 kg
乾燥質量 910.00 kg
総質量 960.00 kg
長さ 0.30 m
直径 4.10 m
スパン 29.00 m
形状 Box + pan
製造者 SPXS
バスタイプ Starlink V2MD
フェーズステータス In Orbit
所有者/国 SPXS/US

Most Searched